User: anonymous   Login
Location: Follega
(52.8850°N, 5.7362°E)
Time: 01:17:02
(UTC+00:00)
Language:

CARTOSAT-1 - Orbit

View from above orbital plane
View from above orbital plane
View from above satellite
View from above satellite

Ground track
Ground track

The orbit data is extracted from the following two-line orbital elements,

1 28649U 05017A   21021.47046903  .00000000  00000-0  62823-5 0  9997
2 28649  97.7883  91.4141 0002831  92.3517 267.8022 14.83750819850819
Epoch (UTC): 21 January 2021 11:17:28
Eccentricity: 0.0002831
inclination: 97.7883°
perigee height: 615 km
apogee height: 619 km
right ascension of ascending node: 91.4141°
argument of perigee: 92.3517°
revolutions per day: 14.83750819
mean anomaly at epoch: 267.8022°
orbit number at epoch: 85081

The dashed part of the orbit path shows where the satellite is in the earth's shadow,  

DLR